Location: ????????
(38.4362°N, 22.8767°E)
Time: 23:02:41
(UTC+00:00)

Cosmos 1092 Rocket - Pass Details

Date: 29 April 2025
Orbit: 953 x 994 km, 82.9° (Epoch: 16 May)

Event Time Altitude Azimuth Distance (km) Brightness Sun altitude
Rises 18:22:53 0° 334° (NNW) 3,656 8.0 -12.3°
Reaches altitude 10° 18:26:18 10° 315° (NW) 2,712 7.7 -12.8°
Maximum altitude 18:30:02 17° 278° (W) 2,253 6.9 -13.5°
Drops below altitude 10° 18:33:48 10° 240° (WSW) 2,719 6.7 -14.1°
Sets 18:37:15 0° 221° (SW) 3,670 7.1 -14.7°
